Details for Austrian at LOWI




Go Back


Latest METAR
Local Time

LOWI 180620Z 09003KT 060V140 9999 FEW120 SCT300 19/13 Q1022 NOSIG
18/08/2018, 08:29:05

Description
Results
Austrian Logo
Number of Pilots based at LOWI
0 Pilots Based here
Number of Austrian Flights Departed from LOWI
1 Flights Departed
Number of Austrian Flights Arrived at LOWI
2 Flights Arrived
Number of Austrian Schedules Departing from LOWI
22 Schedules
Number of Austrian Schedules Arriving at LOWI
24 Schedules
Number of Austrian Schedules Departing from LOWI availible today
17 Schedules Today
Number of Austrian Schedules Arriving at LOWI availible today
16 Schedules Today
Average Landing Rate at LOWI
-254 fpm
Austrian Average Landing Rate at LOWI
-302 fpm
Total Fuel Purchased at LOWI by Austrian
713.95 kgs / 1,573.97 lbs

Pilots Based at LOWI


Pilot ID
Pilot Name
Pilot Rank
No. of Flights
No. of Flying Hours
There are no pilots assigned to this hub!   Will you be the first?
Content